QPF
0.51 0.58 0.46 0.27 0.16 0.12 0.10 0.05 0.02 0.03 0.04 0.04 0.02 0.01 0.00 0.00 0.00 0.00 0.00 0.00 0.02 0.03 0.04 0.05 0.05 0.05 0.05 0.02 0.02 0.03 0.04 0.05 0.05 0.03 0.03 0.03 0.06 0.14 0.17 0.15 0.15 0.09 0.06
0.96 1.00 0.84 0.46 0.22 0.11 0.05 0.02 0.02 0.05 0.06 0.04 0.02 0.00 0.00 0.00 0.00 0.00 0.00 0.01 0.01 0.01 0.01 0.01 0.01 0.02 0.02 0.00 0.00 0.00 0.02 0.05 0.06 0.07 0.06 0.06 0.06 0.10 0.12 0.14 0.14 0.14 0.16
0.88 0.98 0.76 0.37 0.15 0.06 0.02 0.03 0.06 0.08 0.06 0.04 0.02 0.01 0.00 0.01 0.01 0.02 0.01 0.00 0.00 0.00 0.00 0.01 0.01 0.01 0.01 0.00 0.00 0.00 0.00 0.03 0.10 0.12 0.13 0.12 0.11 0.10 0.08 0.12 0.14 0.23 0.31
0.44 0.61 0.47 0.24 0.13 0.06 0.03 0.03 0.03 0.02 0.01 0.01 0.00 0.00 0.00 0.01 0.01 0.01 0.00 0.00 0.00 0.00 0.00 0.00 0.00 0.00 0.00 0.00 0.00 0.00 0.00 0.02 0.07 0.11 0.11 0.10 0.11 0.08 0.07 0.11 0.17 0.26 0.34
0.28 0.39 0.30 0.17 0.11 0.04 0.01 0.00 0.00 0.00 0.00 0.00 0.00 0.00 0.00 0.01 0.00 0.00 0.00 0.00 0.00 0.00 0.00 0.00 0.00 0.00 0.00 0.00 0.00 0.00 0.01 0.01 0.01 0.02 0.02 0.02 0.04 0.03 0.04 0.08 0.15 0.27 0.35
0.19 0.27 0.25 0.18 0.11 0.04 0.01 0.00 0.01 0.00 0.00 0.00 0.00 0.00 0.00 0.00 0.00 0.00 0.00 0.00 0.00 0.00 0.00 0.00 0.00 0.00 0.00 0.00 0.00 0.00 0.00 0.01 0.01 0.01 0.00 0.00 0.01 0.01 0.03 0.08 0.17 0.33 0.49
0.15 0.18 0.21 0.18 0.13 0.09 0.03 0.01 0.01 0.00 0.00 0.00 0.00 0.00 0.00 0.00 0.00 0.00 0.00 0.00 0.00 0.00 0.00 0.00 0.00 0.00 0.00 0.00 0.00 0.00 0.00 0.00 0.00 0.01 0.00 0.00 0.00 0.00 0.02 0.07 0.17 0.43 0.71
0.10 0.13 0.16 0.17 0.20 0.20 0.09 0.04 0.02 0.01 0.00 0.01 0.01 0.01 0.00 0.00 0.00 0.00 0.00 0.00 0.00 0.00 0.00 0.00 0.00 0.00 0.00 0.00 0.00 0.00 0.00 0.00 0.00 0.00 0.00 0.00 0.00 0.01 0.01 0.03 0.05 0.17 0.38
0.06 0.08 0.10 0.11 0.15 0.17 0.12 0.06 0.04 0.04 0.02 0.01 0.01 0.01 0.00 0.00 0.00 0.00 0.00 0.00 0.00 0.00 0.00 0.00 0.00 0.00 0.00 0.00 0.00 0.00 0.00 0.00 0.00 0.00 0.00 0.00 0.00 0.00 0.01 0.03 0.02 0.02 0.04
0.06 0.06 0.08 0.09 0.15 0.18 0.13 0.06 0.04 0.06 0.04 0.01 0.00 0.00 0.00 0.00 0.00 0.00 0.00 0.00 0.00 0.00 0.00 0.00 0.00 0.00 0.00 0.00 0.00 0.00 0.00 0.00 0.00 0.00 0.00 0.00 0.00 0.00 0.00 0.02 0.06 0.07 0.05
0.04 0.03 0.04 0.07 0.11 0.13 0.11 0.08 0.04 0.03 0.02 0.01 0.00 0.00 0.00 0.00 0.00 0.00 0.00 0.00 0.00 0.00 0.00 0.00 0.00 0.00 0.00 0.00 0.00 0.00 0.00 0.00 0.00 0.00 0.00 0.00 0.00 0.00 0.00 0.00 0.03 0.08 0.08
0.02 0.02 0.02 0.03 0.03 0.05 0.09 0.09 0.05 0.01 0.01 0.01 0.01 0.00 0.00 0.00 0.00 0.00 0.00 0.00 0.00 0.00 0.00 0.00 0.00 0.00 0.00 0.00 0.00 0.00 0.00 0.00 0.00 0.00 0.00 0.00 0.00 0.00 0.00 0.00 0.01 0.02 0.03
0.03 0.04 0.03 0.03 0.03 0.04 0.07 0.07 0.04 0.02 0.00 0.00 0.00 0.00 0.00 0.00 0.00 0.00 0.00 0.00 0.00 0.00 0.00 0.00 0.00 0.00 0.00 0.00 0.00 0.00 0.00 0.00 0.00 0.00 0.00 0.00 0.00 0.00 0.00 0.00 0.01 0.01 0.01
0.03 0.04 0.03 0.02 0.02 0.02 0.03 0.06 0.06 0.03 0.01 0.01 0.02 0.01 0.00 0.00 0.00 0.00 0.00 0.00 0.00 0.00 0.00 0.00 0.00 0.00 0.00 0.00 0.00 0.00 0.00 0.00 0.00 0.00 0.00 0.00 0.00 0.00 0.00 0.00 0.00 0.00 0.00
0.02 0.02 0.01 0.01 0.01 0.01 0.01 0.03 0.07 0.08 0.05 0.04 0.03 0.01 0.00 0.00 0.00 0.00 0.00 0.00 0.00 0.00 0.00 0.00 0.00 0.00 0.00 0.00 0.00 0.00 0.00 0.00 0.00 0.00 0.00 0.00 0.00 0.00 0.00 0.00 0.00 0.00 0.00
0.01 0.01 0.01 0.01 0.01 0.00 0.00 0.00 0.01 0.03 0.01 0.02 0.02 0.01 0.00 0.00 0.00 0.00 0.00 0.00 0.00 0.00 0.00 0.00 0.00 0.00 0.00 0.00 0.00 0.00 0.00 0.00 0.00 0.00 0.00 0.00 0.00 0.00 0.00 0.00 0.00 0.00 0.00
0.01 0.01 0.01 0.00 0.00 0.00 0.00 0.01 0.02 0.01 0.01 0.01 0.01 0.00 0.00 0.00 0.00 0.00 0.00 0.00 0.00 0.00 0.00 0.00 0.00 0.00 0.00 0.00 0.00 0.00 0.00 0.00 0.00 0.00 0.00 0.00 0.00 0.00 0.00 0.00 0.00 0.00 0.00
0.01 0.01 0.01 0.01 0.00 0.00 0.00 0.01 0.04 0.03 0.01 0.00 0.00 0.00 0.00 0.00 0.00 0.00 0.00 0.00 0.00 0.00 0.00 0.00 0.00 0.00 0.00 0.00 0.00 0.00 0.00 0.00 0.00 0.00 0.00 0.00 0.00 0.00 0.00 0.00 0.00 0.00 0.00
0.00 0.00 0.00 0.00 0.01 0.00 0.00 0.01 0.02 0.03 0.02 0.01 0.00 0.00 0.00 0.00 0.00 0.00 0.00 0.00 0.00 0.00 0.00 0.00 0.00 0.00 0.00 0.00 0.00 0.00 0.00 0.00 0.00 0.00 0.00 0.00 0.00 0.00 0.00 0.00 0.00 0.00 0.00
0.00 0.00 0.00 0.00 0.00 0.00 0.00 0.00 0.01 0.02 0.01 0.00 0.00 0.00 0.00 0.00 0.00 0.00 0.00 0.00 0.00 0.00 0.00 0.00 0.00 0.00 0.00 0.00 0.00 0.00 0.00 0.00 0.00 0.00 0.00 0.00 0.00 0.00 0.00 0.00 0.00 0.00 0.00
0.00 0.00 0.00 0.00 0.00 0.00 0.00 0.00 0.00 0.00 0.00 0.00 0.00 0.00 0.00 0.00 0.00 0.00 0.00 0.00 0.00 0.00 0.00 0.00 0.00 0.00 0.00 0.00 0.00 0.00 0.00 0.00 0.00 0.00 0.00 0.00 0.00 0.00 0.00 0.00 0.00 0.00 0.00
0.00 0.00 0.00 0.00 0.00 0.00 0.00 0.00 0.00 0.00 0.00 0.00 0.00 0.00 0.00 0.00 0.00 0.00 0.00 0.00 0.00 0.00 0.00 0.00 0.00 0.00 0.00 0.00 0.00 0.00 0.00 0.00 0.00 0.00 0.00 0.00 0.00 0.00 0.00 0.00 0.00 0.00 0.00
0.00 0.00 0.00 0.00 0.00 0.00 0.00 0.00 0.00 0.00 0.00 0.00 0.00 0.00 0.00 0.00 0.00 0.00 0.00 0.00 0.00 0.00 0.00 0.00 0.00 0.00 0.00 0.00 0.00 0.00 0.00 0.00 0.00 0.00 0.00 0.00 0.00 0.00 0.00 0.00 0.00 0.00 0.00
0.00 0.00 0.00 0.00 0.00 0.00 0.00 0.00 0.00 0.00 0.00 0.00 0.00 0.00 0.00 0.00 0.00 0.00 0.00 0.00 0.00 0.00 0.00 0.00 0.00 0.00 0.00 0.00 0.00 0.00 0.00 0.00 0.00 0.00 0.00 0.00 0.00 0.00 0.00 0.00 0.00 0.00 0.00
0.00 0.00 0.00 0.00 0.00 0.00 0.00 0.00 0.00 0.00 0.00 0.00 0.00 0.00 0.00 0.00 0.00 0.00 0.00 0.00 0.00 0.00 0.00 0.00 0.00 0.00 0.00 0.00 0.00 0.00 0.00 0.00 0.00 0.00 0.00 0.00 0.00 0.00 0.00 0.00 0.00 0.00 0.00
0.00 0.00 0.00 0.00 0.00 0.00 0.00 0.00 0.00 0.00 0.00 0.00 0.00 0.00 0.00 0.00 0.00 0.00 0.00 0.00 0.00 0.00 0.00 0.00 0.00 0.00 0.00 0.00 0.00 0.00 0.00 0.00 0.00 0.00 0.00 0.00 0.00 0.00 0.00 0.00 0.00 0.00 0.00
MSLP
1008.90 1008.93 1009.00 1009.07 1009.13 1009.16 1009.15 1009.13 1009.11 1009.09 1009.10 1009.15 1009.23 1009.33 1009.45 1009.58 1009.69 1009.79 1009.86 1009.91 1009.94 1009.96 1009.98 1009.99 1010.00 1010.00 1009.99 1009.93 1009.82 1009.65 1009.42 1009.12 1008.75 1008.36 1007.95 1007.57 1007.25 1007.00 1006.86 1006.81 1006.85 1006.94 1007.05
1009.23 1009.34 1009.47 1009.59 1009.68 1009.72 1009.71 1009.65 1009.57 1009.48 1009.42 1009.39 1009.42 1009.49 1009.60 1009.74 1009.89 1010.02 1010.13 1010.21 1010.26 1010.27 1010.27 1010.25 1010.21 1010.17 1010.12 1010.04 1009.92 1009.76 1009.54 1009.27 1008.94 1008.57 1008.18 1007.79 1007.45 1007.17 1006.97 1006.85 1006.81 1006.82 1006.85
1009.46 1009.64 1009.84 1010.02 1010.16 1010.23 1010.23 1010.16 1010.05 1009.93 1009.82 1009.75 1009.74 1009.79 1009.90 1010.05 1010.23 1010.40 1010.55 1010.66 1010.73 1010.75 1010.74 1010.69 1010.62 1010.53 1010.44 1010.33 1010.19 1010.02 1009.81 1009.54 1009.23 1008.87 1008.48 1008.10 1007.73 1007.41 1007.15 1006.97 1006.85 1006.78 1006.74
1009.53 1009.77 1010.03 1010.28 1010.47 1010.59 1010.63 1010.59 1010.49 1010.37 1010.25 1010.17 1010.15 1010.19 1010.31 1010.48 1010.68 1010.89 1011.07 1011.22 1011.32 1011.35 1011.34 1011.27 1011.18 1011.07 1010.94 1010.79 1010.63 1010.44 1010.21 1009.94 1009.63 1009.27 1008.87 1008.47 1008.08 1007.72 1007.41 1007.17 1006.98 1006.84 1006.74
1009.41 1009.70 1010.01 1010.32 1010.57 1010.76 1010.86 1010.88 1010.84 1010.75 1010.67 1010.61 1010.60 1010.66 1010.79 1010.97 1011.19 1011.42 1011.64 1011.82 1011.94 1011.99 1011.99 1011.93 1011.83 1011.70 1011.55 1011.38 1011.19 1010.97 1010.72 1010.43 1010.09 1009.72 1009.31 1008.89 1008.47 1008.08 1007.73 1007.44 1007.20 1007.01 1006.87
1009.14 1009.45 1009.80 1010.14 1010.46 1010.72 1010.90 1011.01 1011.05 1011.04 1011.02 1011.01 1011.04 1011.13 1011.27 1011.47 1011.70 1011.94 1012.18 1012.37 1012.51 1012.59 1012.61 1012.57 1012.47 1012.34 1012.18 1011.99 1011.78 1011.53 1011.25 1010.93 1010.57 1010.17 1009.74 1009.30 1008.86 1008.44 1008.07 1007.74 1007.48 1007.26 1007.10
1008.78 1009.08 1009.44 1009.81 1010.18 1010.50 1010.77 1010.98 1011.12 1011.21 1011.28 1011.35 1011.43 1011.56 1011.72 1011.92 1012.16 1012.40 1012.63 1012.83 1012.99 1013.09 1013.12 1013.10 1013.03 1012.91 1012.75 1012.56 1012.33 1012.06 1011.75 1011.40 1011.01 1010.58 1010.12 1009.66 1009.20 1008.78 1008.39 1008.06 1007.78 1007.56 1007.39
1008.39 1008.67 1009.01 1009.39 1009.78 1010.16 1010.51 1010.81 1011.06 1011.26 1011.43 1011.58 1011.74 1011.90 1012.09 1012.30 1012.52 1012.75 1012.97 1013.17 1013.32 1013.44 1013.49 1013.50 1013.45 1013.35 1013.21 1013.02 1012.78 1012.49 1012.16 1011.78 1011.36 1010.91 1010.43 1009.95 1009.49 1009.06 1008.67 1008.34 1008.08 1007.87 1007.71
1008.06 1008.30 1008.60 1008.96 1009.36 1009.77 1010.17 1010.55 1010.90 1011.21 1011.48 1011.72 1011.94 1012.16 1012.37 1012.59 1012.80 1013.02 1013.21 1013.39 1013.54 1013.65 1013.72 1013.74 1013.72 1013.65 1013.52 1013.34 1013.11 1012.82 1012.47 1012.08 1011.64 1011.16 1010.67 1010.18 1009.72 1009.29 1008.91 1008.60 1008.35 1008.16 1008.01
1007.80 1008.00 1008.27 1008.59 1008.97 1009.39 1009.82 1010.26 1010.68 1011.08 1011.44 1011.78 1012.07 1012.34 1012.59 1012.82 1013.02 1013.22 1013.39 1013.55 1013.68 1013.78 1013.85 1013.88 1013.88 1013.82 1013.72 1013.56 1013.34 1013.06 1012.71 1012.31 1011.87 1011.38 1010.89 1010.40 1009.93 1009.51 1009.15 1008.84 1008.61 1008.43 1008.29
1007.64 1007.81 1008.03 1008.31 1008.66 1009.06 1009.51 1009.97 1010.45 1010.92 1011.36 1011.78 1012.15 1012.47 1012.76 1013.01 1013.22 1013.40 1013.55 1013.68 1013.79 1013.87 1013.93 1013.97 1013.97 1013.93 1013.85 1013.71 1013.52 1013.25 1012.92 1012.54 1012.10 1011.62 1011.13 1010.65 1010.19 1009.77 1009.41 1009.11 1008.88 1008.70 1008.57
1007.54 1007.69 1007.87 1008.12 1008.43 1008.80 1009.24 1009.72 1010.23 1010.75 1011.26 1011.75 1012.19 1012.58 1012.91 1013.19 1013.42 1013.60 1013.73 1013.84 1013.92 1013.97 1014.02 1014.04 1014.04 1014.02 1013.95 1013.84 1013.67 1013.44 1013.14 1012.78 1012.37 1011.92 1011.45 1010.98 1010.53 1010.12 1009.75 1009.45 1009.20 1009.01 1008.86
1007.45 1007.60 1007.77 1007.99 1008.26 1008.61 1009.03 1009.51 1010.03 1010.59 1011.15 1011.70 1012.21 1012.67 1013.06 1013.38 1013.63 1013.81 1013.94 1014.02 1014.08 1014.10 1014.12 1014.12 1014.11 1014.09 1014.04 1013.95 1013.82 1013.63 1013.39 1013.08 1012.71 1012.31 1011.87 1011.42 1010.99 1010.57 1010.21 1009.88 1009.61 1009.39 1009.21
1007.31 1007.50 1007.67 1007.88 1008.13 1008.46 1008.85 1009.32 1009.86 1010.44 1011.04 1011.64 1012.21 1012.73 1013.18 1013.55 1013.83 1014.03 1014.16 1014.22 1014.25 1014.24 1014.22 1014.20 1014.17 1014.14 1014.10 1014.04 1013.95 1013.82 1013.63 1013.39 1013.10 1012.75 1012.37 1011.96 1011.54 1011.14 1010.76 1010.42 1010.12 1009.85 1009.63
1007.08 1007.32 1007.52 1007.74 1007.99 1008.30 1008.69 1009.15 1009.68 1010.28 1010.91 1011.55 1012.17 1012.75 1013.25 1013.66 1013.98 1014.20 1014.33 1014.38 1014.38 1014.34 1014.29 1014.23 1014.18 1014.14 1014.11 1014.08 1014.03 1013.96 1013.85 1013.69 1013.48 1013.21 1012.89 1012.54 1012.16 1011.78 1011.40 1011.04 1010.70 1010.40 1010.12
1006.72 1007.02 1007.29 1007.53 1007.80 1008.12 1008.50 1008.95 1009.49 1010.09 1010.74 1011.41 1012.07 1012.68 1013.22 1013.68 1014.02 1014.26 1014.39 1014.43 1014.41 1014.34 1014.25 1014.17 1014.09 1014.05 1014.03 1014.02 1014.03 1014.02 1013.99 1013.92 1013.80 1013.62 1013.39 1013.10 1012.78 1012.42 1012.06 1011.69 1011.33 1010.99 1010.67
1006.23 1006.61 1006.93 1007.23 1007.53 1007.87 1008.25 1008.71 1009.24 1009.84 1010.50 1011.18 1011.85 1012.49 1013.06 1013.54 1013.91 1014.16 1014.29 1014.33 1014.29 1014.20 1014.09 1013.98 1013.89 1013.84 1013.83 1013.85 1013.91 1013.97 1014.02 1014.04 1014.01 1013.93 1013.79 1013.59 1013.32 1013.01 1012.67 1012.31 1011.95 1011.59 1011.24
1005.62 1006.07 1006.47 1006.82 1007.17 1007.53 1007.93 1008.39 1008.92 1009.52 1010.16 1010.84 1011.52 1012.16 1012.74 1013.23 1013.61 1013.86 1014.00 1014.04 1013.99 1013.89 1013.77 1013.65 1013.56 1013.52 1013.52 1013.58 1013.68 1013.81 1013.93 1014.04 1014.11 1014.12 1014.07 1013.94 1013.75 1013.50 1013.20 1012.87 1012.52 1012.16 1011.80
1004.91 1005.43 1005.89 1006.31 1006.70 1007.10 1007.52 1007.99 1008.51 1009.10 1009.73 1010.39 1011.05 1011.68 1012.25 1012.73 1013.11 1013.37 1013.52 1013.56 1013.52 1013.43 1013.32 1013.21 1013.14 1013.11 1013.15 1013.25 1013.39 1013.57 1013.76 1013.94 1014.09 1014.18 1014.21 1014.17 1014.05 1013.86 1013.61 1013.32 1012.99 1012.65 1012.30
1004.13 1004.70 1005.22 1005.70 1006.14 1006.57 1007.02 1007.49 1008.01 1008.58 1009.19 1009.82 1010.45 1011.05 1011.60 1012.07 1012.44 1012.70 1012.86 1012.92 1012.90 1012.84 1012.76 1012.69 1012.66 1012.67 1012.75 1012.89 1013.08 1013.31 1013.55 1013.79 1014.00 1014.15 1014.25 1014.27 1014.21 1014.08 1013.89 1013.65 1013.36 1013.05 1012.72
1003.32 1003.92 1004.49 1005.00 1005.49 1005.95 1006.42 1006.90 1007.41 1007.96 1008.54 1009.14 1009.73 1010.30 1010.82 1011.27 1011.63 1011.89 1012.06 1012.15 1012.18 1012.17 1012.14 1012.13 1012.16 1012.23 1012.37 1012.56 1012.80 1013.07 1013.35 1013.63 1013.87 1014.07 1014.21 1014.28 1014.27 1014.19 1014.06 1013.86 1013.62 1013.35 1013.05
1002.49 1003.11 1003.70 1004.24 1004.75 1005.24 1005.73 1006.22 1006.73 1007.26 1007.81 1008.37 1008.93 1009.46 1009.94 1010.36 1010.71 1010.98 1011.17 1011.30 1011.38 1011.44 1011.49 1011.56 1011.66 1011.81 1012.02 1012.27 1012.55 1012.87 1013.18 1013.48 1013.75 1013.97 1014.13 1014.23 1014.26 1014.22 1014.13 1013.98 1013.79 1013.56 1013.30
1001.68 1002.29 1002.88 1003.43 1003.95 1004.46 1004.96 1005.46 1005.97 1006.49 1007.02 1007.55 1008.07 1008.55 1009.00 1009.39 1009.73 1010.00 1010.21 1010.38 1010.52 1010.66 1010.80 1010.96 1011.16 1011.40 1011.68 1012.00 1012.34 1012.69 1013.03 1013.35 1013.63 1013.86 1014.04 1014.15 1014.20 1014.19 1014.13 1014.02 1013.88 1013.69 1013.47
1000.90 1001.47 1002.04 1002.58 1003.11 1003.62 1004.13 1004.63 1005.15 1005.66 1006.18 1006.68 1007.17 1007.62 1008.03 1008.40 1008.71 1008.98 1009.21 1009.42 1009.62 1009.83 1010.06 1010.32 1010.62 1010.95 1011.32 1011.72 1012.12 1012.51 1012.88 1013.22 1013.51 1013.74 1013.92 1014.04 1014.10 1014.12 1014.08 1014.01 1013.90 1013.76 1013.57
1000.14 1000.66 1001.18 1001.70 1002.21 1002.72 1003.24 1003.76 1004.28 1004.80 1005.31 1005.80 1006.25 1006.68 1007.05 1007.39 1007.68 1007.94 1008.18 1008.42 1008.67 1008.94 1009.25 1009.61 1010.00 1010.43 1010.89 1011.37 1011.83 1012.28 1012.68 1013.04 1013.34 1013.59 1013.77 1013.90 1013.97 1014.01 1014.01 1013.97 1013.89 1013.79 1013.64
999.39 999.85 1000.31 1000.79 1001.28 1001.79 1002.31 1002.84 1003.38 1003.91 1004.42 1004.90 1005.34 1005.73 1006.08 1006.39 1006.65 1006.90 1007.14 1007.39 1007.67 1008.00 1008.38 1008.81 1009.29 1009.81 1010.36 1010.91 1011.45 1011.95 1012.40 1012.79 1013.12 1013.38 1013.58 1013.72 1013.82 1013.88 1013.91 1013.90 1013.87 1013.80 1013.70
Thickness
5659 5652 5645 5642 5644 5647 5650 5652 5655 5658 5660 5662 5664 5666 5668 5670 5672 5674 5680 5681 5682 5683 5682 5682 5681 5681 5682 5685 5687 5688 5687 5686 5685 5692 5694 5693 5689 5686 5686 5686 5686 5685 5686
5642 5636 5630 5627 5627 5630 5635 5639 5643 5648 5651 5653 5655 5658 5662 5663 5663 5665 5668 5671 5672 5672 5671 5671 5670 5670 5669 5671 5673 5675 5677 5677 5676 5676 5680 5682 5681 5679 5678 5677 5678 5679 5679
5636 5629 5624 5620 5619 5622 5628 5633 5636 5639 5641 5644 5646 5649 5652 5654 5654 5656 5658 5659 5660 5660 5660 5658 5656 5656 5657 5659 5659 5663 5669 5673 5668 5665 5665 5667 5669 5670 5671 5672 5672 5671 5672
5631 5626 5620 5617 5616 5618 5620 5623 5626 5629 5631 5634 5637 5640 5642 5645 5645 5645 5646 5646 5646 5646 5647 5646 5646 5646 5645 5646 5650 5652 5657 5659 5658 5658 5657 5658 5660 5662 5663 5662 5662 5663 5664
5628 5623 5619 5616 5614 5614 5615 5618 5620 5622 5624 5626 5630 5633 5635 5636 5635 5634 5634 5634 5634 5634 5633 5633 5632 5630 5627 5631 5638 5641 5644 5646 5650 5650 5648 5649 5649 5650 5651 5651 5652 5655 5656
5626 5622 5618 5616 5613 5611 5612 5614 5616 5617 5618 5621 5624 5626 5628 5627 5620 5621 5624 5623 5623 5622 5622 5622 5623 5621 5619 5619 5621 5621 5623 5629 5632 5635 5635 5635 5634 5638 5640 5643 5642 5643 5643
5625 5622 5619 5615 5610 5608 5609 5610 5610 5611 5612 5614 5617 5617 5615 5610 5608 5609 5609 5613 5612 5611 5611 5612 5615 5611 5612 5615 5612 5611 5612 5613 5612 5617 5619 5618 5623 5625 5628 5635 5633 5631 5630
5626 5622 5618 5613 5608 5604 5603 5604 5603 5604 5605 5607 5609 5607 5604 5600 5598 5599 5601 5604 5603 5601 5601 5601 5601 5599 5598 5599 5603 5604 5606 5606 5606 5608 5605 5605 5609 5612 5619 5625 5627 5628 5626
5627 5624 5620 5616 5609 5603 5600 5598 5596 5596 5598 5599 5601 5600 5597 5591 5590 5592 5594 5597 5594 5592 5591 5590 5592 5590 5583 5585 5592 5593 5594 5595 5594 5592 5590 5592 5595 5599 5606 5616 5618 5622 5621
5627 5624 5621 5617 5613 5608 5602 5597 5594 5592 5592 5593 5593 5594 5591 5587 5583 5584 5586 5594 5589 5588 5585 5584 5577 5576 5573 5573 5581 5582 5580 5580 5582 5586 5584 5586 5590 5592 5595 5599 5604 5606 5607
5628 5623 5620 5617 5613 5608 5601 5596 5592 5591 5589 5588 5585 5585 5585 5582 5577 5578 5580 5588 5588 5587 5586 5584 5577 5568 5567 5567 5568 5569 5566 5566 5575 5576 5577 5577 5579 5580 5583 5584 5586 5589 5591
5627 5623 5619 5616 5614 5608 5601 5596 5592 5590 5586 5584 5581 5581 5579 5577 5574 5572 5574 5577 5580 5580 5580 5579 5571 5563 5561 5559 5560 5555 5556 5560 5565 5565 5564 5562 5562 5563 5565 5569 5570 5572 5574
5625 5621 5618 5615 5612 5608 5602 5597 5593 5590 5590 5588 5582 5577 5577 5574 5568 5566 5568 5569 5570 5573 5571 5562 5560 5557 5553 5553 5549 5549 5552 5554 5553 5552 5550 5549 5549 5547 5550 5553 5558 5562 5566
5621 5618 5616 5614 5611 5607 5603 5599 5597 5595 5594 5591 5585 5580 5577 5574 5572 5569 5567 5565 5561 5565 5565 5557 5553 5552 5551 5547 5547 5548 5545 5540 5539 5539 5539 5539 5538 5538 5539 5539 5542 5546 5551
5618 5616 5615 5613 5611 5607 5604 5600 5597 5597 5596 5591 5586 5581 5577 5575 5569 5564 5567 5567 5566 5562 5561 5561 5561 5557 5554 5549 5545 5539 5536 5533 5531 5530 5528 5528 5528 5528 5528 5528 5528 5532 5535
5614 5612 5613 5612 5609 5606 5602 5595 5585 5587 5584 5581 5578 5576 5572 5567 5558 5555 5552 5551 5550 5550 5554 5559 5556 5552 5548 5543 5538 5534 5528 5523 5520 5519 5517 5516 5516 5516 5516 5517 5517 5517 5519
5611 5610 5610 5609 5607 5604 5601 5598 5590 5579 5573 5570 5569 5567 5564 5556 5552 5548 5546 5545 5545 5544 5553 5554 5550 5545 5541 5536 5531 5526 5520 5514 5509 5509 5507 5505 5505 5506 5505 5504 5504 5504 5506
5607 5605 5604 5604 5603 5602 5599 5596 5592 5586 5578 5570 5562 5558 5555 5550 5546 5543 5541 5540 5546 5545 5553 5549 5545 5540 5535 5530 5525 5519 5514 5509 5504 5501 5498 5496 5496 5496 5495 5494 5495 5490 5493
5601 5602 5599 5600 5599 5598 5596 5593 5589 5585 5581 5574 5566 5555 5548 5544 5539 5537 5536 5546 5556 5553 5550 5546 5541 5537 5531 5525 5519 5512 5508 5502 5495 5494 5491 5487 5488 5488 5486 5486 5486 5481 5482
5595 5594 5592 5594 5595 5594 5593 5591 5586 5580 5575 5570 5567 5563 5551 5547 5548 5544 5543 5549 5553 5551 5547 5543 5538 5534 5528 5523 5516 5509 5505 5498 5493 5490 5486 5483 5481 5479 5478 5477 5477 5476 5476
5592 5589 5584 5588 5592 5592 5590 5588 5583 5578 5573 5571 5571 5568 5558 5556 5556 5555 5552 5550 5549 5548 5544 5541 5537 5531 5526 5520 5515 5510 5502 5497 5490 5485 5480 5477 5474 5472 5470 5469 5469 5468 5467
5592 5590 5584 5587 5589 5588 5588 5585 5581 5576 5574 5573 5571 5564 5553 5556 5557 5556 5553 5550 5548 5546 5544 5540 5537 5533 5527 5521 5515 5508 5503 5496 5489 5482 5475 5470 5466 5463 5461 5459 5458 5457 5456
5593 5590 5585 5585 5586 5582 5581 5582 5581 5578 5575 5573 5571 5566 5556 5553 5554 5554 5552 5551 5548 5546 5543 5539 5535 5532 5528 5521 5515 5509 5504 5497 5488 5480 5472 5466 5461 5456 5453 5451 5449 5447 5447
5592 5590 5587 5585 5584 5582 5581 5582 5580 5578 5575 5572 5570 5567 5562 5556 5554 5553 5552 5550 5548 5545 5543 5539 5536 5533 5527 5520 5514 5509 5503 5495 5485 5477 5468 5462 5455 5450 5446 5443 5441 5439 5437
5592 5590 5589 5587 5585 5583 5581 5581 5580 5577 5574 5572 5569 5566 5563 5561 5557 5555 5553 5550 5548 5545 5543 5539 5536 5532 5527 5520 5514 5508 5498 5488 5479 5472 5464 5456 5449 5443 5439 5436 5433 5431 5428
5592 5592 5591 5590 5587 5585 5583 5581 5580 5578 5576 5573 5570 5567 5564 5562 5560 5558 5555 5551 5548 5546 5542 5540 5536 5532 5527 5520 5514 5503 5492 5483 5474 5465 5460 5453 5445 5439 5434 5430 5427 5423 5421